Location: Brede
(50.9167°N, 0.6000°E)
Time: 18:40:53
(UTC+00:00)

Cosmos 1743 - Pass Details

Date: 08 August 2020
Orbit: 509 x 528 km, 82.5° (Epoch: 23 September)

Event Time Altitude Azimuth Distance (km) Brightness Sun altitude
Exits shadow 00:27:18 40° 282° (WNW) 793 3.6 -22.8°
Maximum altitude 00:27:25 40° 286° (WNW) 792 3.6 -22.8°
Drops below altitude 10° 00:31:08 10° 357° (N) 1,787 6.5 -22.7°
Sets 00:33:24 0° 5° (N) 2,682 7.8 -22.7°
